Location: Decatur Area Astronomy Club
(40.0275°N, 88.7810°W)
Time: 00:33:59
(UTC-05:00)

Amateur Radio Satellites - All Passes

Search period start: 26 May 2015 00:03
Search period end: 27 May 2015 00:03
Location: Decatur Area Astronomy Club, 40.0275°N, 88.7810°W

Satellite Date Start Highest point End Downlink Frequencies (MHz)
Time Altitude Azimuth
50 SAT 26 May 00:08:24 00:10:44 15° 269° (W) 00:12:56 437.505
CUSAT 1 26 May 00:12:11 00:19:33 64° 76° (ENE) 00:25:16 437.405
TISAT 1 26 May 00:20:54 00:25:05 61° 75° (ENE) 00:29:18 437.305
UNISAT 6 26 May 00:23:56 00:27:46 29° 290° (WNW) 00:31:27 437.425
BUGSAT 1 26 May 00:28:47 00:33:05 82° 284° (WNW) 00:37:20 437.445
GONETS M04 26 May 00:35:54 00:44:40 66° 79° (ENE) 00:53:19
O/OREOS (USA 219) 26 May 00:37:07 00:38:30 11° 50° (NE) 00:40:06 437.305
ITUPSAT 1 26 May 00:37:20 00:40:09 16° 65° (ENE) 00:43:09 437.325
ISS 26 May 00:39:11 00:42:22 56° 326° (NW) 00:45:36 145.825
QB50P1 26 May 00:41:09 00:45:11 39° 288° (WNW) 00:49:09 145.935-145.965
POLYITAN 1 26 May 00:42:28 00:46:27 37° 288° (WNW) 00:50:23 437.675
ESTCUBE 1 26 May 00:42:43 00:45:18 15° 270° (W) 00:47:41 437.505/2401.250
BEESAT 26 May 00:45:16 00:48:36 20° 66° (ENE) 00:52:05 436.000
CUBEBUG 1 26 May 00:46:54 00:49:23 14° 270° (W) 00:51:42 437.445
SWISSCUBE 26 May 00:52:59 00:56:49 25° 68° (ENE) 01:00:44 437.505
Cosmos 2499 26 May 00:57:49 01:00:42 13° 60° (ENE) 01:04:03 435.465 / 435.565
ANTELSAT 26 May 01:09:35 01:10:43 11° 297° (WNW) 01:11:37 437.575/2403.000
NANOSAT C BR1 26 May 01:13:49 01:16:52 19° 293° (WNW) 01:19:47 145.865
DANDE 26 May 01:14:37 01:22:24 58° 267° (W) 01:28:32 436.750
QB50P2 26 May 01:21:16 01:23:52 16° 294° (WNW) 01:26:20 145.880/145.840
PCSat 26 May 01:28:06 01:33:30 83° 118° (ESE) 01:38:58 145.827
SPROUT 26 May 01:30:02 01:32:58 17° 269° (W) 01:35:46 437.525
POPSAT HIP 1 26 May 01:34:42 01:36:23 12° 296° (WNW) 01:37:51 437.405
DUCHIFAT 1 26 May 01:37:57 01:39:20 11° 296° (WNW) 01:40:29 145.980
CUSAT 1 26 May 01:56:15 02:01:20 20° 279° (W) 02:05:27 437.405
TISAT 1 26 May 02:00:11 02:01:21 11° 272° (W) 02:02:14 437.305
VERMONT LUNAR 26 May 02:05:19 02:07:53 22° 153° (SSE) 02:10:29 437.305
Oscar 19 26 May 02:10:05 02:15:08 53° 100° (E) 02:20:09 437.125/150
ITUPSAT 1 26 May 02:12:59 02:17:39 55° 260° (W) 02:22:20 437.325
O/OREOS (USA 219) 26 May 02:14:07 02:18:36 79° 250° (WSW) 02:23:03 437.305
STARS 26 May 02:16:44 02:19:45 19° 66° (ENE) 02:22:55 437.465
ISS 26 May 02:17:25 02:19:22 15° 345° (NNW) 02:21:17 145.825
BEESAT 26 May 02:21:38 02:26:10 43° 262° (W) 02:30:43 436.000
ITAMSAT 1 26 May 02:22:21 02:26:02 20° 92° (E) 02:29:54 435.822/435.867
BEESAT 2 26 May 02:27:32 02:30:17 17° 44° (NE) 02:33:05 435.950
SWISSCUBE 26 May 02:30:17 02:34:34 33° 264° (W) 02:38:50 437.505
GONETS M04 26 May 02:33:56 02:40:53 26° 277° (W) 02:47:26
KKS-1 26 May 02:44:24 02:48:47 58° 74° (ENE) 02:53:13 437.445
Cosmos 2499 26 May 02:48:06 02:55:12 85° 82° (E) 03:02:23 435.465 / 435.565
Gurwin Techsat 1B 26 May 02:52:19 02:57:12 37° 97° (E) 03:02:06 435.225
SO-50 26 May 03:12:08 03:16:25 38° 115° (ESE) 03:20:53 436.795
PCSat 26 May 03:14:07 03:17:41 17° 317° (NW) 03:21:05 145.827
BEESAT 3 26 May 03:17:23 03:21:26 60° 55° (NE) 03:25:25 437.485
JAS-2 26 May 03:27:17 03:29:10 12° 88° (E) 03:31:25 435.910
HORYU 2 26 May 03:30:46 03:32:32 12° 89° (E) 03:34:32 437.375
VERMONT LUNAR 26 May 03:41:37 03:44:50 76° 168° (SSE) 03:48:02 437.305
AIST 2 26 May 03:47:19 03:51:04 30° 50° (NE) 03:54:48 435.215
Oscar 19 26 May 03:50:29 03:54:07 19° 296° (WNW) 03:57:35 437.125/150
STARS 26 May 03:51:43 03:55:56 41° 262° (W) 04:00:09 437.465
ISS 26 May 03:55:45 03:56:52 11° 5° (N) 03:57:58 145.825
PHONESAT 2.4 26 May 03:56:34 03:59:51 40° 158° (SSE) 04:03:09 2401.200-2431.200
ITAMSAT 1 26 May 04:00:49 04:05:51 48° 289° (WNW) 04:10:51 435.822/435.867
BEESAT 2 26 May 04:04:42 04:08:41 51° 243° (WSW) 04:12:35 435.950
MOZHAYETS 4 26 May 04:05:36 04:09:39 33° 71° (ENE) 04:13:45
AO-7 26 May 04:15:16 04:22:44 36° 97° (E) 04:30:21 29.400- 29.500
KKS-1 26 May 04:23:48 04:25:53 13° 271° (W) 04:27:44 437.445
Gurwin Techsat 1B 26 May 04:32:34 04:37:03 28° 293° (WNW) 04:41:27 435.225
Cosmos 2499 26 May 04:43:50 04:47:30 14° 279° (W) 04:50:43 435.465 / 435.565
SO-50 26 May 04:52:59 04:57:04 28° 314° (NW) 05:01:14 436.795
BEESAT 3 26 May 04:57:29 04:58:58 11° 250° (WSW) 05:00:12 437.485
HORYU 2 26 May 05:05:16 05:09:38 57° 286° (WNW) 05:13:57 437.375
JAS-2 26 May 05:09:50 05:14:59 69° 286° (WNW) 05:20:16 435.910
VERMONT LUNAR 26 May 05:18:51 05:22:04 82° 4° (N) 05:25:16 437.305
AIST 2 26 May 05:26:02 05:29:33 25° 247° (WSW) 05:32:57 435.215
ISS 26 May 05:31:26 05:34:10 24° 25° (NNE) 05:36:55 145.825
PHONESAT 2.4 26 May 05:34:23 05:37:52 85° 352° (N) 05:41:21 2401.200-2431.200
CUBESAT XI-V 26 May 05:41:33 05:45:23 27° 69° (ENE) 05:49:19 437.345
MOZHAYETS 4 26 May 05:43:15 05:46:57 23° 267° (W) 05:50:32
PRISM 26 May 05:56:29 05:59:03 17° 67° (ENE) 06:01:45 437.425
CUTE-I 26 May 06:06:49 06:10:03 17° 90° (E) 06:13:31 437.470
AO-7 26 May 06:07:46 06:15:47 51° 295° (WNW) 06:23:42 29.400- 29.500
M-CUBED/EXP-1 PRIME 26 May 06:18:11 06:21:25 22° 66° (ENE) 06:24:33 437.505
Cosmos 2491 26 May 06:20:24 06:28:47 47° 74° (ENE) 06:37:11 435.465 / 435.565
Cubesat XI-IV 26 May 06:26:15 06:30:38 26° 94° (E) 06:35:07 437.490
AUBIESAT-1 26 May 06:27:14 06:30:32 24° 66° (ENE) 06:33:44 437.475
STRAND 1 26 May 06:34:30 06:39:16 43° 71° (ENE) 06:44:06 437.568
VERMONT LUNAR 26 May 06:56:07 06:59:11 43° 201° (SSW) 07:02:14 437.305
ISS 26 May 07:07:34 07:10:44 46° 222° (SW) 07:13:52 145.825
YUBILEINY 26 May 07:11:30 07:19:29 43° 88° (E) 07:27:34 435.215
PHONESAT 2.4 26 May 07:12:33 07:16:01 82° 192° (SSW) 07:19:30 2401.200-2431.200
CUBESAT XI-V 26 May 07:18:47 07:22:47 28° 265° (W) 07:26:44 437.345
PRISM 26 May 07:30:25 07:34:14 38° 262° (W) 07:38:04 437.425
AIST 1 26 May 07:45:01 07:49:09 40° 78° (ENE) 07:53:19
CUTE-I 26 May 07:45:19 07:50:37 60° 288° (WNW) 07:55:54 437.470
M-CUBED/EXP-1 PRIME 26 May 07:52:19 07:56:09 30° 258° (WSW) 07:59:43 437.505
AUBIESAT-1 26 May 08:01:34 08:05:14 27° 258° (WSW) 08:08:39 437.475
AO-7 26 May 08:04:33 08:06:48 11° 315° (NW) 08:08:33 29.400- 29.500
Cubesat XI-IV 26 May 08:05:53 08:10:52 39° 290° (WNW) 08:15:48 437.490
RS-15 26 May 08:08:41 08:17:32 32° 106° (ESE) 08:26:53 29.354- 29.394
STRAND 1 26 May 08:14:48 08:18:42 21° 268° (W) 08:22:30 437.568
Cosmos 2491 26 May 08:17:34 08:25:32 38° 273° (W) 08:33:16 435.465 / 435.565
BRITE-PL 26 May 08:35:59 08:41:26 47° 97° (E) 08:46:40 437.365/2234.400
PCSat 26 May 08:36:12 08:37:19 11° 36° (NE) 08:38:41 145.827
GOMX 1 26 May 08:43:32 08:48:24 34° 94° (E) 08:53:05 467.674
PHONESAT 2.4 26 May 08:50:55 08:53:55 27° 207° (SSW) 08:56:53 2401.200-2431.200
Cosmos 2504 26 May 09:02:00 09:07:25 20° 84° (E) 09:13:01 435.465 / 435.565
CANX-2 26 May 09:05:49 09:09:39 34° 96° (E) 09:13:30 2200.000
YUBILEINY 26 May 09:08:09 09:16:22 41° 288° (WNW) 09:24:27 435.215
CUTE 1.7 + AOD 2 26 May 09:09:31 09:13:21 34° 96° (E) 09:17:11 437.475
AIST 1 26 May 09:23:44 09:26:30 16° 272° (W) 09:29:06
TIGRISAT 26 May 09:27:09 09:29:28 14° 65° (ENE) 09:31:59 435.000
CINEMA 3 26 May 09:33:07 09:37:18 31° 95° (E) 09:41:22 145.822/145.860
HO-68 26 May 09:33:12 09:40:20 64° 102° (ESE) 09:47:25 435.675
SEEDS 26 May 09:33:20 09:37:25 52° 99° (E) 09:41:29 437.485
UWE-3 26 May 09:44:10 09:46:40 15° 90° (E) 09:49:18 435.000/436.395/437.385
UNISAT 6 26 May 09:45:49 09:49:22 22° 68° (ENE) 09:53:01 437.425
COMPASS 1 26 May 09:47:56 09:52:04 63° 101° (E) 09:56:09 437.405
DOVE 4 26 May 09:48:20 09:53:31 85° 285° (WNW) 09:58:23 437.250
FUNcube-1 26 May 09:56:26 09:59:00 16° 90° (E) 10:01:42 145.935
QB50P1 26 May 09:59:40 10:01:31 13° 65° (ENE) 10:03:34 145.935-145.965
AAUSAT CUBESAT 2 26 May 10:00:47 10:04:56 76° 102° (ESE) 10:09:03 437.432
POLYITAN 1 26 May 10:00:56 10:03:01 14° 65° (ENE) 10:05:18 437.675
BRITE-PL 26 May 10:15:05 10:19:37 25° 294° (WNW) 10:23:54 437.365/2234.400
PCSat 26 May 10:16:42 10:22:03 57° 57° (ENE) 10:27:23 145.827
RS-15 26 May 10:18:17 10:29:09 69° 307° (NW) 10:40:20 29.354- 29.394
GOMX 1 26 May 10:21:44 10:26:25 29° 292° (WNW) 10:30:47 467.674
ANTELSAT 26 May 10:27:54 10:32:32 60° 74° (ENE) 10:37:08 437.575/2403.000
NANOSAT C BR1 26 May 10:29:26 10:32:58 26° 70° (ENE) 10:36:36 145.865
CUBEBUG 2 26 May 10:30:04 10:34:31 64° 100° (E) 10:38:49 437.445
DELFI C3 26 May 10:33:38 10:37:36 57° 100° (E) 10:41:33 145.870
ZACube-1 26 May 10:35:26 10:39:36 45° 98° (E) 10:43:39 437.345
QB50P2 26 May 10:36:32 10:40:20 33° 71° (ENE) 10:44:14 145.880/145.840
HUMSAT D 26 May 10:36:57 10:40:00 20° 93° (E) 10:43:08 437.325/437.525
UKube-1 26 May 10:39:34 10:42:51 21° 94° (E) 10:46:13 .
CANX-2 26 May 10:42:19 10:45:23 19° 292° (WNW) 10:48:20 2200.000
CUTE 1.7 + AOD 2 26 May 10:45:59 10:49:04 20° 292° (WNW) 10:52:02 437.475
DX 1 26 May 10:46:45 10:50:30 28° 96° (E) 10:54:19 434.975-435.025
POPSAT HIP 1 26 May 10:48:44 10:52:47 43° 73° (ENE) 10:56:54 437.405
Oscar 11 26 May 10:49:43 10:54:00 67° 285° (WNW) 10:58:15 145.826/435.025
DUCHIFAT 1 26 May 10:51:20 10:55:23 45° 73° (ENE) 10:59:30 145.980
Cosmos 2504 26 May 10:51:46 11:00:12 76° 279° (W) 11:08:03 435.465 / 435.565
VELOX 1 26 May 10:58:14 11:01:20 19° 92° (E) 11:04:33 145.980
ESTCUBE 1 26 May 10:59:31 11:00:40 11° 88° (E) 11:02:07 437.505/2401.250
TIGRISAT 26 May 11:01:05 11:05:45 63° 259° (W) 11:10:24 435.000
CINEMA 3 26 May 11:10:27 11:14:23 25° 292° (WNW) 11:18:04 145.822/145.860
SEEDS 26 May 11:10:46 11:12:49 13° 294° (WNW) 11:14:41 437.485
BUGSAT 1 26 May 11:17:55 11:22:00 62° 74° (ENE) 11:26:10 437.445
UWE-3 26 May 11:19:19 11:23:31 44° 287° (WNW) 11:27:35 435.000/436.395/437.385
UNISAT 6 26 May 11:21:35 11:25:58 37° 263° (W) 11:30:16 437.425
HO-68 26 May 11:21:54 11:27:34 25° 300° (WNW) 11:33:02 435.675
COMPASS 1 26 May 11:25:56 11:27:16 11° 295° (WNW) 11:28:23 437.405
AISAT 26 May 11:28:44 11:33:00 41° 98° (E) 11:37:15 437.250
DOVE 4 26 May 11:29:13 11:30:27 11° 300° (WNW) 11:31:21 437.250
FUNcube-1 26 May 11:31:31 11:35:36 41° 288° (WNW) 11:39:35 145.935
QB50P1 26 May 11:32:43 11:36:56 58° 259° (W) 11:41:11 145.935-145.965
POLYITAN 1 26 May 11:34:17 11:38:31 54° 260° (W) 11:42:46 437.675
CUSAT 1 26 May 11:37:23 11:40:27 13° 78° (ENE) 11:44:15 437.405
50 SAT 26 May 11:43:28 11:47:20 69° 101° (E) 11:51:10 437.505
SO-50 26 May 11:44:02 11:48:29 32° 48° (NE) 11:52:55 436.795
GONETS M04 26 May 11:45:10 11:48:39 14° 77° (ENE) 11:52:50
PCSat 26 May 12:01:14 12:05:04 19° 253° (WSW) 12:08:43 145.827
NANOSAT C BR1 26 May 12:05:10 12:08:47 25° 266° (W) 12:12:19 145.865
ANTELSAT 26 May 12:07:21 12:09:44 13° 271° (W) 12:11:52 437.575/2403.000
CUBEBUG 2 26 May 12:08:47 12:10:40 12° 296° (WNW) 12:12:20 437.445
TISAT 1 26 May 12:09:29 12:09:36 10° 88° (E) 12:10:02 437.305
DELFI C3 26 May 12:10:52 12:12:17 11° 295° (WNW) 12:13:30 145.870
HUMSAT D 26 May 12:12:08 12:15:50 30° 289° (WNW) 12:19:26 437.325/437.525
ZACube-1 26 May 12:12:54 12:15:36 16° 294° (WNW) 12:18:07 437.345
QB50P2 26 May 12:13:02 12:16:20 21° 267° (W) 12:19:32 145.880/145.840
UKube-1 26 May 12:15:09 12:19:04 32° 290° (WNW) 12:22:55 .
DX 1 26 May 12:23:00 12:26:41 26° 291° (WNW) 12:30:17 434.975-435.025
POPSAT HIP 1 26 May 12:26:15 12:28:55 16° 269° (W) 12:31:26 437.405
DUCHIFAT 1 26 May 12:28:57 12:31:29 15° 270° (W) 12:33:51 145.980
ESTCUBE 1 26 May 12:33:34 12:38:05 67° 285° (WNW) 12:42:34 437.505/2401.250
VELOX 1 26 May 12:33:53 12:38:05 39° 289° (WNW) 12:42:13 145.980
CUBEBUG 1 26 May 12:33:57 12:38:25 75° 284° (WNW) 12:42:51 437.445
RS-15 26 May 12:35:25 12:44:12 25° 336° (NNW) 12:53:02 29.354- 29.394
DANDE 26 May 12:39:50 12:45:52 33° 86° (E) 12:53:03 436.750
Cosmos 2504 26 May 12:51:00 12:55:05 14° 300° (WNW) 12:58:31 435.465 / 435.565
BUGSAT 1 26 May 12:57:29 12:58:00 10° 272° (W) 12:58:14 437.445
AISAT 26 May 13:06:07 13:09:18 19° 294° (WNW) 13:12:21 437.250
CUSAT 1 26 May 13:14:36 13:21:45 73° 96° (E) 13:30:03 437.405
SPROUT 26 May 13:15:34 13:19:56 87° 103° (ESE) 13:24:15 437.525
SO-50 26 May 13:24:35 13:29:03 34° 246° (WSW) 13:33:24 436.795
Oscar 19 26 May 13:26:06 13:31:16 72° 75° (ENE) 13:36:29 437.125/150
AO-7 26 May 13:29:55 13:30:15 10° 44° (NE) 13:31:09 29.400- 29.500
GONETS M04 26 May 13:35:24 13:44:12 77° 95° (E) 13:53:04
Cosmos 2499 26 May 13:37:08 13:38:45 11° 80° (E) 13:41:01 435.465 / 435.565
ITAMSAT 1 26 May 13:39:36 13:43:57 29° 68° (ENE) 13:48:24 435.822/435.867
TISAT 1 26 May 13:41:39 13:45:55 65° 285° (WNW) 13:50:08 437.305
Gurwin Techsat 1B 26 May 14:12:40 14:17:49 55° 72° (ENE) 14:23:01 435.225
ITUPSAT 1 26 May 14:14:13 14:18:42 39° 98° (E) 14:23:12 437.325
DANDE 26 May 14:21:50 14:28:43 53° 287° (WNW) 14:36:53 436.750
BEESAT 26 May 14:22:14 14:26:52 49° 99° (E) 14:31:30 436.000
HORYU 2 26 May 14:29:11 14:30:51 12° 64° (ENE) 14:32:45 437.375
SWISSCUBE 26 May 14:30:33 14:35:19 66° 102° (ESE) 14:40:04 437.505
KKS-1 26 May 14:38:25 14:39:55 12° 89° (E) 14:41:41 437.445
O/OREOS (USA 219) 26 May 14:49:13 14:51:03 13° 100° (E) 14:53:07 437.305
RS-15 26 May 14:54:19 15:02:04 20° 11° (N) 15:10:13 29.354- 29.394
CUSAT 1 26 May 14:59:17 15:05:25 25° 298° (WNW) 15:11:49 437.405
Oscar 19 26 May 15:08:47 15:11:16 13° 272° (W) 15:13:26 437.125/150
AO-7 26 May 15:13:26 15:21:11 48° 64° (ENE) 15:29:04 29.400- 29.500
ITAMSAT 1 26 May 15:18:43 15:23:23 33° 264° (W) 15:28:02 435.822/435.867
JAS-2 26 May 15:20:24 15:26:45 47° 72° (ENE) 15:32:29 435.910
Cosmos 2499 26 May 15:22:46 15:30:55 72° 95° (E) 15:38:30 435.465 / 435.565
GONETS M04 26 May 15:35:21 15:42:10 23° 296° (WNW) 15:48:38
STARS 26 May 15:42:01 15:46:08 37° 97° (E) 15:50:13 437.465
ITUPSAT 1 26 May 15:52:41 15:56:23 22° 293° (WNW) 15:59:57 437.325
Gurwin Techsat 1B 26 May 15:54:33 15:58:12 18° 270° (W) 16:01:40 435.225
BEESAT 26 May 16:01:06 16:04:22 18° 295° (WNW) 16:07:29 436.000
HORYU 2 26 May 16:02:32 16:07:00 68° 258° (WSW) 16:11:29 437.375
SWISSCUBE 26 May 16:10:09 16:12:41 14° 297° (WNW) 16:15:01 437.505
DANDE 26 May 16:12:28 16:14:28 11° 310° (NW) 16:15:54 436.750
KKS-1 26 May 16:12:36 16:17:03 62° 286° (WNW) 16:21:26 437.445
O/OREOS (USA 219) 26 May 16:25:35 16:30:02 58° 294° (WNW) 16:34:29 437.305
JAS-2 26 May 17:06:20 17:12:01 27° 265° (W) 17:17:03 435.910
AO-7 26 May 17:06:31 17:14:09 39° 263° (W) 17:21:43 29.400- 29.500
RS-15 26 May 17:07:51 17:18:41 44° 43° (NE) 17:30:04 29.354- 29.394
BEESAT 3 26 May 17:11:47 17:13:29 13° 110° (ESE) 17:15:23 437.485
Cosmos 2499 26 May 17:18:46 17:24:49 22° 294° (WNW) 17:30:16 435.465 / 435.565
STARS 26 May 17:19:03 17:22:21 20° 293° (WNW) 17:25:32 437.465
YUBILEINY 26 May 17:23:03 17:28:47 20° 62° (ENE) 17:34:55 435.215
CUTE-I 26 May 17:27:47 17:32:06 26° 67° (ENE) 17:36:31 437.470
MOZHAYETS 4 26 May 17:37:46 17:42:22 87° 107° (ESE) 17:46:56
Cubesat XI-IV 26 May 17:47:33 17:52:27 40° 70° (ENE) 17:57:25 437.490
BEESAT 2 26 May 17:57:44 18:01:24 33° 115° (ESE) 18:05:09 435.950
STRAND 1 26 May 18:46:55 18:49:46 15° 90° (E) 18:52:52 437.568
BEESAT 3 26 May 18:47:02 18:51:03 56° 305° (NW) 18:55:06 437.485
CUTE-I 26 May 19:07:05 19:12:01 39° 263° (W) 19:16:58 437.470
PRISM 26 May 19:13:17 19:16:52 28° 96° (E) 19:20:31 437.425
CUBESAT XI-V 26 May 19:15:10 19:19:53 75° 102° (ESE) 19:24:36 437.345
YUBILEINY 26 May 19:18:12 19:26:57 86° 263° (W) 19:35:39 435.215
DOVE 4 26 May 19:18:46 19:20:24 12° 61° (ENE) 19:22:20 437.250
RS-15 26 May 19:20:19 19:31:46 62° 245° (WSW) 19:43:34 29.354- 29.394
Cosmos 2491 26 May 19:20:21 19:28:46 55° 91° (E) 19:37:20 435.465 / 435.565
AIST 2 26 May 19:22:17 19:26:31 78° 121° (ESE) 19:30:49 435.215
Cubesat XI-IV 26 May 19:28:21 19:32:43 25° 267° (W) 19:36:59 437.490
M-CUBED/EXP-1 PRIME 26 May 19:35:07 19:36:42 13° 97° (E) 19:38:26 437.505
BEESAT 2 26 May 19:36:09 19:39:33 24° 312° (NW) 19:42:57 435.950
AUBIESAT-1 26 May 19:43:25 19:45:16 15° 98° (E) 19:47:15 437.475
BRITE-PL 26 May 19:45:39 19:50:29 47° 72° (ENE) 19:55:44 437.365/2234.400
GOMX 1 26 May 19:50:28 19:55:03 34° 69° (ENE) 19:59:55 467.674
CANX-2 26 May 19:58:30 20:01:53 24° 70° (ENE) 20:05:21 2200.000
HO-68 26 May 20:00:56 20:07:39 45° 67° (ENE) 20:14:25 435.675
CUTE 1.7 + AOD 2 26 May 20:02:09 20:05:30 24° 70° (ENE) 20:08:56 437.475
AIST 1 26 May 20:14:23 20:17:47 24° 90° (E) 20:21:18
STRAND 1 26 May 20:24:23 20:29:28 61° 287° (WNW) 20:34:32 437.568
SEEDS 26 May 20:24:49 20:28:37 34° 72° (ENE) 20:32:27 437.485
CINEMA 3 26 May 20:33:41 20:37:57 30° 69° (ENE) 20:42:21 145.822/145.860
COMPASS 1 26 May 20:38:30 20:42:23 38° 72° (ENE) 20:46:17 437.405
UWE-3 26 May 20:41:07 20:43:30 14° 65° (ENE) 20:46:05 435.000/436.395/437.385
Cosmos 2504 26 May 20:45:37 20:52:03 35° 72° (ENE) 20:58:33 435.465 / 435.565
PRISM 26 May 20:48:55 20:52:14 23° 291° (WNW) 20:55:27 437.425
AAUSAT CUBESAT 2 26 May 20:50:49 20:54:47 45° 74° (ENE) 20:58:47 437.432
FUNcube-1 26 May 20:52:10 20:54:26 14° 65° (ENE) 20:56:54 145.935
DOVE 4 26 May 20:52:16 20:57:23 88° 78° (ENE) 21:02:43 437.250
CUBESAT XI-V 26 May 20:54:54 20:56:47 12° 296° (WNW) 20:58:25 437.345
AIST 2 26 May 21:03:21 21:05:41 14° 319° (NW) 21:07:54 435.215
M-CUBED/EXP-1 PRIME 26 May 21:08:49 21:11:44 28° 293° (WNW) 21:14:37 437.505
AUBIESAT-1 26 May 21:17:21 21:20:11 26° 294° (WNW) 21:22:59 437.475
YUBILEINY 26 May 21:17:45 21:22:38 16° 281° (WNW) 21:26:56 435.215
Cosmos 2491 26 May 21:18:19 21:26:06 33° 291° (WNW) 21:33:44 435.465 / 435.565
DELFI C3 26 May 21:20:32 21:24:05 31° 72° (ENE) 21:27:42 145.870
BRITE-PL 26 May 21:25:28 21:29:21 21° 271° (W) 21:33:17 437.365/2234.400
CUBEBUG 2 26 May 21:26:59 21:31:36 51° 74° (ENE) 21:36:14 437.445
GOMX 1 26 May 21:28:43 21:33:12 29° 267° (W) 21:37:48 467.674
HUMSAT D 26 May 21:28:54 21:31:19 15° 66° (ENE) 21:33:53 437.325/437.525
ZACube-1 26 May 21:30:27 21:34:36 35° 71° (ENE) 21:38:47 437.345
CANX-2 26 May 21:34:00 21:37:44 28° 265° (W) 21:41:23 2200.000
UKube-1 26 May 21:34:24 21:37:14 18° 66° (ENE) 21:40:13 .
CUTE 1.7 + AOD 2 26 May 21:37:36 21:41:19 28° 265° (W) 21:44:59 437.475
RS-15 26 May 21:38:27 21:42:24 11° 262° (W) 21:45:02 29.354- 29.394
DX 1 26 May 21:42:05 21:45:29 23° 68° (ENE) 21:48:59 434.975-435.025
Oscar 11 26 May 21:43:29 21:47:49 85° 77° (ENE) 21:52:10 145.826/435.025
HO-68 26 May 21:49:03 21:55:31 34° 264° (W) 22:01:53 435.675
AIST 1 26 May 21:51:49 21:55:23 25° 286° (WNW) 21:58:54
VELOX 1 26 May 21:55:54 21:58:36 17° 66° (ENE) 22:01:28 145.980
ESTCUBE 1 26 May 21:59:51 22:00:31 10° 63° (ENE) 22:01:28 437.505/2401.250
SEEDS 26 May 22:01:26 22:04:32 19° 268° (W) 22:07:30 437.485
CINEMA 3 26 May 22:10:39 22:15:04 31° 265° (W) 22:19:31 145.822/145.860
UWE-3 26 May 22:14:55 22:19:34 62° 260° (W) 22:24:13 435.000/436.395/437.385
COMPASS 1 26 May 22:15:30 22:18:15 16° 269° (W) 22:20:52 437.405
ANTELSAT 26 May 22:22:51 22:24:30 12° 88° (E) 22:26:23 437.575/2403.000
FUNcube-1 26 May 22:25:46 22:30:19 61° 260° (W) 22:34:52 145.935
AISAT 26 May 22:25:57 22:29:58 35° 71° (ENE) 22:34:03 437.250
50 SAT 26 May 22:27:26 22:31:05 35° 72° (ENE) 22:34:45 437.505
AAUSAT CUBESAT 2 26 May 22:28:26 22:30:42 14° 270° (W) 22:32:46 437.432
DOVE 4 26 May 22:34:53 22:35:59 10° 276° (W) 22:36:43 437.250
Cosmos 2504 26 May 22:38:55 22:45:31 39° 271° (W) 22:52:01 435.465 / 435.565
TIGRISAT 26 May 22:54:11 22:57:53 27° 95° (E) 23:01:34 435.000
DELFI C3 26 May 22:56:23 22:59:18 19° 267° (W) 23:02:07 145.870
HUMSAT D 26 May 23:02:30 23:06:42 48° 261° (W) 23:10:54 437.325/437.525
CUBEBUG 2 26 May 23:05:33 23:08:37 16° 270° (W) 23:11:29 437.445
ZACube-1 26 May 23:07:24 23:11:03 22° 267° (W) 23:14:34 437.345
UKube-1 26 May 23:09:00 23:13:06 40° 262° (W) 23:17:12 .
UNISAT 6 26 May 23:14:09 23:18:23 47° 99° (E) 23:22:32 437.425
DX 1 26 May 23:17:44 23:21:36 31° 264° (W) 23:25:28 434.975-435.025
QB50P1 26 May 23:19:03 23:22:29 23° 94° (E) 23:25:57 145.935-145.965
POLYITAN 1 26 May 23:20:52 23:24:23 25° 94° (E) 23:27:56 437.675
DANDE 26 May 23:23:06 23:29:27 27° 63° (ENE) 23:34:59 436.750
CUBEBUG 1 26 May 23:29:12 23:33:33 83° 77° (ENE) 23:37:57 437.445
VELOX 1 26 May 23:30:33 23:34:49 47° 261° (W) 23:39:08 145.980
ESTCUBE 1 26 May 23:32:20 23:36:49 79° 257° (WSW) 23:41:20 437.505/2401.250
ISS 26 May 23:45:55 23:49:09 73° 140° (SE) 23:52:24 145.825
GONETS M04 26 May 23:46:59 23:54:53 37° 71° (ENE) 00:02:51
NANOSAT C BR1 26 May 23:49:56 23:54:07 52° 99° (E) 23:58:16 145.865
